Home   Weather   Halmstad   Past weeks

Flag for Sweden Past Weather in Halmstad, Sweden — Yesterday and Last 2 Weeks

Now
55 °F

Passing clouds.


Feels Like: 51 °F
Forecast: 52 / 61 °F
Wind: 18 mph from West

Location: Halmstad Swedish Air Force Base

Current Time: Oct 1, 2016 at 1:56:26 AM

Latest Report: Oct 1, 2016 at 1:20 AM


Visibility: N/A

Pressure: 29.77 "Hg

Humidity: 72%

Dew Point: 46 °F

Location of HalmstadLocation

Past Weather in Halmstad — Graph

°F

Halmstad Temperature Yesterday

Maximum temperature yesterday: 61 °F (at 1:20 PM)
Minimum temperature yesterday: 54 °F (at 6:20 AM)
Average temperature yesterday: 57 °F

High & Low Weather Summary for the Past Weeks

 TemperatureHumidityPressure
High73 °F (Sep 16, 12:20 PM)94% (Sep 16, 12:50 AM)30.27 "Hg (Sep 16, 12:50 AM)
Low45 °F (Sep 21, 6:50 AM)43% (Sep 17, 4:20 PM)29.50 "Hg (Sep 29, 4:20 PM)
Average58 °F75%30.06 "Hg
* Reported Sep 16 12:20 AM — Oct 1 12:20 AM, Halmstad, Weather by CustomWeather, © 2016

Note: Actual official high and low records may vary slightly from our data, if they occured in-between our weather recording intervals... More about our weather records

Advertising

Halmstad Weather History for the Previous 24 Hours

Scroll right to see more
 ConditionsComfort  
Time TempWeatherWind HumidityBarometerVisibility
12:20 AM
Sat, Oct 1
55 °FPassing clouds.17 mph72%29.77 "HgN/A
11:50 PM
Fri, Sep 30
55 °FPassing clouds.17 mph72%29.77 "HgN/A
11:20 PM57 °FPassing clouds.18 mph67%29.77 "HgN/A
10:50 PM57 °FPassing clouds.18 mph67%29.74 "HgN/A
10:20 PM55 °FPassing clouds.20 mph67%29.74 "HgN/A
9:50 PM55 °FPassing clouds.17 mph72%29.74 "HgN/A
9:20 PM55 °FPassing clouds.18 mph72%29.74 "HgN/A
8:50 PM55 °FPassing clouds.18 mph72%29.74 "HgN/A
8:20 PM55 °FPassing clouds.14 mph72%29.71 "HgN/A
7:50 PM55 °FPassing clouds.21 mph72%29.71 "HgN/A
7:20 PM57 °FThundershowers. Passing clouds.21 mph67%29.71 "HgN/A
6:50 PM57 °FPassing clouds.15 mph72%29.71 "HgN/A
6:20 PM57 °FScattered clouds.18 mph67%29.71 "HgN/A
5:50 PM57 °FScattered clouds.20 mph67%29.71 "HgN/A
5:20 PM59 °FScattered clouds.18 mph68%29.68 "HgN/A
4:50 PM57 °FHeavy rain. Broken clouds.16 mph72%29.68 "HgN/A
4:20 PM57 °FScattered clouds.15 mph77%29.68 "HgN/A
3:50 PM59 °FScattered clouds.17 mph72%29.68 "HgN/A
3:20 PM57 °FScattered clouds.20 mph72%29.68 "HgN/A
2:50 PM59 °FLight rain. Scattered clouds.16 mph72%29.68 "HgN/A
2:20 PM59 °FScattered clouds.18 mph68%29.68 "HgN/A
1:50 PM57 °FScattered clouds.16 mph72%29.68 "HgN/A
1:20 PM61 °FScattered clouds.18 mph68%29.68 "HgN/A
12:50 PM57 °FPassing clouds.16 mph72%29.68 "HgN/A
12:20 PM55 °FScattered showers. Broken clouds.15 mph82%29.68 "HgN/A
11:50 AM57 °FBroken clouds.14 mph72%29.68 "HgN/A
11:20 AM55 °FScattered clouds.15 mph77%29.68 "Hg0 mi
10:50 AM57 °FBroken clouds.15 mph67%29.68 "HgN/A
10:20 AM55 °FBroken clouds.16 mph72%29.68 "HgN/A
9:50 AM57 °FScattered clouds.18 mph67%29.68 "HgN/A
9:20 AM55 °FScattered clouds.18 mph72%29.65 "HgN/A
8:50 AM55 °FScattered clouds.21 mph72%29.65 "HgN/A
8:20 AM55 °FScattered clouds.20 mph72%29.65 "HgN/A
7:50 AM55 °FScattered clouds.20 mph72%29.62 "HgN/A
7:20 AM55 °FBroken clouds.20 mph72%29.62 "HgN/A
6:50 AM54 °FPartly cloudy.18 mph77%29.62 "HgN/A
6:20 AM54 °FPartly cloudy.23 mph77%29.59 "HgN/A
5:50 AM55 °FPassing clouds.22 mph72%29.59 "HgN/A
5:20 AM55 °FPassing clouds.23 mph72%29.56 "HgN/A
4:50 AM55 °FPassing clouds.23 mph72%29.56 "HgN/A
4:20 AM55 °FPartly cloudy.24 mph77%29.53 "HgN/A
3:50 AM55 °FPartly cloudy.28 mph82%29.53 "HgN/A
3:20 AM57 °FPartly cloudy.31 mph72%29.53 "HgN/A
2:50 AM57 °FPassing clouds.28 mph72%29.53 "HgN/A
2:20 AM57 °FPassing clouds.28 mph72%29.53 "HgN/A
1:20 AM57 °FPassing clouds.28 mph72%29.53 "HgN/A
Weather by CustomWeather, © 2016

See weather overviewHow to use our weather pages